Tracking 22458 objects as of 4-Mar-2021
HD Live streaming from Space Station
objects crossing your sky now

IUS DEB

Track IUS DEB now!
10-day predictions


NORAD ID: 43364
Int'l Code: 1999-040M
Perigee: 829.8 km
Apogee: 9,473.6 km
Inclination: 28.1 °
Period: 205.2 minutes
Semi major axis: 11522 km
RCS: Unknown
Launch date: July 23, 1999
Source: United States (US)
Launch site: AIR FORCE EASTERN TEST RANGE (AFETR)

Note: This is SATELLITE DEBRIS
aabbcc
Your satellite tracking list
Your tracking list is empty




NASA's NSSDC Master Catalog

Two Line Element Set (TLE):
1 43364U 99040M   21062.47988613 -.00000873  00000-0 -66543-2 0  9995
2 43364  28.0989 356.2731 3750778 193.1143 153.5961  7.01893078  3325
Source of the keplerian elements: AFSPC